Temp
24 25 25 26 18 16 14 15 15 15 12 12 12 12 11 12 11 9 10 11 11 11 12 12 13 13 14 14 13 14 14 15 15 16 16 16 17 17 17 17 18 17 17 17 17 17 16 16 16
24 25 25 25 15 13 12 14 14 14 14 13 12 12 11 11 12 10 9 9 11 11 12 12 13 14 13 14 14 13 13 14 15 15 16 16 16 16 17 17 17 17 17 17 17 17 16 16 16
24 25 23 13 11 11 12 13 15 14 14 14 12 11 11 11 11 9 9 9 10 11 11 11 13 13 13 14 14 13 13 13 14 15 15 16 15 16 16 17 17 17 17 17 17 16 17 16 16
25 24 19 13 11 11 12 11 14 14 13 12 12 11 10 10 9 8 9 9 10 10 10 11 12 12 13 13 13 14 13 13 13 15 15 15 15 15 15 16 16 17 17 17 17 16 17 16 16
25 21 11 11 11 12 12 13 12 12 12 12 11 10 10 9 9 9 8 9 9 9 9 10 10 11 12 12 12 12 12 12 12 13 14 15 15 15 15 15 16 16 16 16 16 16 16 16 15
23 19 10 10 12 12 12 12 11 11 11 11 11 10 9 9 9 8 8 8 8 9 9 9 9 10 10 10 10 10 11 12 12 12 13 14 15 15 14 14 14 15 16 16 16 16 16 16 15
18 11 11 12 12 12 12 12 11 11 10 10 11 10 9 9 8 8 8 8 8 8 8 8 9 9 9 9 8 8 8 10 11 11 12 13 13 14 14 14 14 14 15 16 16 16 16 15 16
20 14 12 11 11 10 11 11 11 10 10 10 10 9 8 8 8 8 8 7 7 7 8 8 8 9 9 9 8 8 7 7 9 10 12 12 12 13 14 14 14 14 13 15 16 16 16 15 16
19 10 10 11 11 9 11 11 10 10 10 9 9 9 9 8 8 8 7 7 7 7 6 6 6 7 8 8 8 7 7 6 7 9 10 11 10 11 12 13 14 13 14 13 15 15 15 15 15
15 10 11 11 11 10 11 11 11 10 9 9 9 9 9 8 8 7 7 6 6 6 6 5 6 6 6 6 6 7 6 5 5 5 6 8 8 8 11 12 13 13 13 13 13 14 15 15 15
14 11 12 11 11 11 10 11 11 10 8 9 9 9 8 8 7 7 7 6 6 6 5 5 5 5 5 5 4 5 5 4 4 5 5 6 7 8 9 10 12 12 13 13 13 13 14 15 15
12 12 12 11 11 11 11 11 10 10 10 10 9 9 9 8 8 7 7 6 6 6 5 5 5 4 5 4 4 3 3 3 3 4 5 5 5 6 8 8 10 9 12 13 13 12 13 14 15
12 12 11 11 11 11 11 11 10 10 10 10 9 9 9 8 8 7 7 7 6 6 5 5 5 4 4 4 3 3 3 2 2 2 3 3 4 4 5 7 9 8 9 12 12 13 13 13 14
13 12 11 11 11 11 11 10 11 10 10 10 9 9 8 8 8 8 7 7 6 6 5 5 4 4 4 3 3 3 2 2 2 1 1 2 2 4 4 5 5 5 7 10 8 13 12 13 13
13 12 12 11 11 10 11 8 8 11 11 10 9 9 8 8 8 7 7 6 6 6 5 5 4 4 3 3 2 2 1 1 1 1 1 1 1 2 3 3 3 5 6 4 7 13 11 12 12
13 12 10 12 11 10 10 8 10 11 10 10 9 9 9 8 8 7 7 6 6 5 5 4 4 4 3 3 2 2 1 1 1 -0 0 0 0 1 1 1 2 2 4 3 6 12 8 12 12
13 10 11 11 12 11 9 8 10 11 10 10 9 9 9 8 8 7 7 6 5 5 5 5 4 4 3 3 2 2 2 0 -0 -0 -0 0 -0 0 -3 -2 1 1 2 3 5 6 9 9 11
10 10 9 9 10 8 7 7 9 11 11 10 10 9 8 8 7 7 7 6 6 5 5 5 4 4 3 2 2 2 2 1 -0 -0 -0 -0 -0 -1 -3 -3 -2 -1 0 0 1 4 5 10 10
12 10 9 9 10 9 8 7 7 10 10 9 9 9 8 8 7 7 6 6 5 5 5 5 4 3 3 2 2 1 0 -0 -1 -1 -2 -1 -1 -1 -3 -4 -4 -3 -2 -2 -1 1 4 7 9
12 10 10 11 12 9 7 7 7 9 9 9 9 8 8 7 7 6 6 5 5 5 5 4 4 3 3 2 1 0 0 -1 -1 -2 -2 -2 -2 -4 -4 -4 -4 -3 -3 -3 -2 -1 2 4 3
11 10 10 11 12 10 9 8 9 9 9 9 8 8 7 7 6 6 6 5 5 5 5 4 4 3 3 2 1 0 -0 -1 -2 -2 -2 -2 -4 -5 -5 -4 -4 -4 -3 -3 -3 -3 -2 1 3
10 12 12 11 9 8 10 4 8 8 8 7 7 7 7 6 6 6 6 5 5 5 4 4 3 2 2 1 0 -1 -1 -2 -3 -3 -2 -3 -5 -5 -5 -5 -5 -4 -4 -4 -4 -4 -3 -2 2
11 13 12 12 9 7 9 4 6 7 7 7 7 7 6 6 6 6 5 5 5 5 4 3 3 2 1 0 -0 -1 -2 -2 -3 -3 -4 -4 -6 -6 -5 -5 -5 -5 -4 -4 -4 -4 -3 -2 -1
12 12 9 9 7 2 7 4 3 6 7 8 6 6 6 6 6 5 5 5 5 5 4 3 2 1 1 -0 -1 -2 -2 -3 -3 -4 -4 -4 -5 -6 -6 -5 -5 -5 -5 -5 -4 -5 -3 -3 -2
11 7 1 4 3 2 8 7 4 7 7 7 6 6 6 6 6 6 5 5 5 4 3 3 2 1 -0 -1 -2 -2 -3 -3 -4 -4 -4 -5 -5 -5 -5 -5 -5 -5 -5 -5 -5 -5 -3 -3 -3
11 8 2 2 3 5 9 5 5 7 7 7 6 6 6 6 6 6 5 5 4 4 3 2 1 0 -0 -1 -2 -3 -3 -4 -4 -4 -5 -5 -5 -5 -5 -5 -5 -5 -5 -5 -6 -4 -3 -3 -3
10 5 8 5 4 1 3 6 7 6 5 6 6 6 6 6 6 6 5 4 3 3 3 2 1 -0 -1 -2 -2 -3 -3 -4 -4 -4 -5 -5 -5 -5 -5 -5 -5 -5 -5 -5 -6 -4 -3 -4 -3
8 7 5 1 0 -1 2 6 4 3 3 5 6 6 6 7 6 6 5 4 3 3 2 1 0 -0 -1 -2 -2 -3 -3 -4 -4 -4 -5 -5 -5 -6 -5 -5 -5 -5 -5 -6 -6 -5 -4 -4 -4
3 0 1 -1 -3 -2 -4 0 -0 1 -0 0 6 6 7 7 7 6 5 4 3 3 2 1 -0 -1 -1 -2 -3 -3 -4 -4 -4 -5 -5 -5 -6 -6 -5 -5 -5 -6 -6 -6 -6 -5 -5 -5 -4
5 -0 -3 -2 -2 -2 -4 -1 -1 2 4 5 6 6 7 7 6 5 4 3 3 2 2 1 -0 -1 -2 -2 -3 -3 -4 -4 -4 -5 -5 -6 -6 -6 -6 -6 -5 -6 -6 -6 -6 -5 -5 -5 -4
Height
1521 1519 1516 1515 1535 1558 1578 1581 1575 1567 1575 1577 1567 1565 1584 1590 1594 1605 1601 1595 1590 1584 1577 1570 1563 1559 1556 1554 1552 1549 1547 1546 1545 1544 1544 1543 1543 1543 1543 1543 1543 1542 1542 1542 1541 1542 1542 1543 1542
1519 1517 1516 1516 1550 1581 1593 1584 1579 1574 1573 1573 1573 1581 1583 1591 1596 1599 1598 1594 1589 1583 1577 1570 1565 1560 1555 1552 1550 1548 1546 1545 1544 1543 1542 1542 1542 1542 1542 1542 1542 1541 1541 1540 1540 1541 1541 1542 1542
1520 1517 1520 1540 1577 1593 1593 1587 1583 1579 1576 1571 1581 1586 1591 1600 1600 1602 1600 1595 1589 1583 1576 1570 1565 1560 1556 1551 1549 1547 1545 1544 1543 1542 1541 1539 1538 1539 1539 1540 1539 1539 1539 1538 1539 1539 1540 1541 1541
1520 1522 1539 1569 1590 1591 1590 1590 1584 1578 1581 1581 1581 1592 1605 1604 1604 1603 1599 1595 1590 1582 1576 1570 1564 1560 1555 1551 1547 1545 1543 1541 1540 1539 1538 1537 1536 1535 1536 1537 1537 1537 1537 1537 1537 1538 1538 1540 1541
1521 1528 1563 1587 1591 1594 1591 1590 1585 1578 1582 1587 1586 1606 1606 1607 1605 1601 1597 1593 1589 1583 1577 1571 1566 1560 1555 1551 1547 1543 1539 1537 1536 1535 1534 1534 1533 1533 1532 1533 1535 1535 1535 1535 1536 1537 1538 1539 1541
1522 1533 1581 1594 1593 1594 1593 1592 1587 1585 1590 1591 1594 1600 1608 1609 1604 1601 1598 1594 1589 1584 1579 1573 1568 1562 1556 1551 1547 1542 1539 1538 1534 1532 1531 1529 1529 1529 1528 1527 1529 1532 1531 1532 1533 1534 1536 1538 1540
1529 1549 1583 1588 1593 1596 1596 1593 1591 1594 1596 1598 1598 1604 1612 1608 1606 1602 1599 1595 1590 1584 1579 1575 1570 1564 1559 1553 1548 1544 1539 1535 1531 1529 1527 1527 1525 1524 1523 1524 1525 1525 1529 1528 1530 1532 1533 1534 1538
1532 1548 1577 1587 1595 1604 1601 1596 1600 1596 1600 1602 1603 1610 1612 1608 1606 1603 1599 1595 1590 1585 1580 1575 1570 1566 1560 1554 1549 1545 1541 1536 1531 1527 1525 1523 1521 1520 1520 1519 1520 1520 1519 1524 1526 1529 1531 1530 1534
1536 1563 1585 1587 1592 1602 1602 1597 1603 1603 1601 1603 1607 1609 1611 1609 1606 1602 1599 1595 1590 1586 1581 1576 1572 1567 1562 1556 1551 1545 1541 1537 1532 1528 1525 1521 1518 1515 1515 1515 1514 1515 1517 1516 1520 1525 1527 1528 1530
1542 1575 1584 1586 1592 1598 1601 1599 1602 1605 1608 1608 1609 1610 1610 1608 1606 1603 1599 1595 1591 1587 1583 1579 1574 1568 1563 1558 1553 1547 1542 1536 1532 1527 1524 1521 1517 1514 1510 1510 1508 1510 1513 1514 1513 1519 1523 1525 1526
1559 1578 1587 1594 1595 1595 1601 1602 1605 1606 1606 1610 1610 1610 1610 1608 1606 1604 1601 1598 1595 1591 1586 1580 1575 1570 1565 1559 1554 1549 1543 1538 1533 1528 1524 1519 1515 1510 1506 1503 1503 1504 1507 1508 1510 1511 1516 1520 1522
1573 1585 1587 1596 1597 1597 1601 1604 1606 1606 1609 1611 1610 1610 1610 1608 1606 1605 1602 1599 1596 1592 1588 1583 1578 1572 1567 1562 1555 1551 1544 1540 1534 1529 1523 1518 1513 1508 1502 1499 1496 1498 1501 1501 1503 1506 1508 1513 1517
1577 1589 1592 1597 1599 1600 1602 1605 1608 1608 1610 1610 1610 1610 1609 1608 1607 1605 1603 1600 1597 1593 1589 1584 1579 1573 1569 1563 1557 1552 1546 1542 1536 1530 1525 1518 1513 1508 1502 1498 1489 1498 1495 1494 1497 1498 1502 1505 1511
1583 1587 1594 1598 1601 1603 1602 1608 1607 1612 1612 1611 1611 1610 1610 1609 1608 1605 1602 1600 1597 1593 1589 1585 1580 1575 1570 1564 1559 1553 1547 1543 1536 1532 1525 1519 1513 1508 1504 1498 1497 1494 1487 1487 1491 1489 1492 1496 1501
1584 1589 1598 1600 1601 1607 1603 1612 1612 1613 1613 1612 1612 1611 1611 1610 1608 1605 1603 1600 1597 1594 1590 1585 1580 1575 1570 1564 1559 1553 1549 1543 1537 1532 1526 1520 1514 1508 1504 1499 1494 1488 1486 1487 1479 1478 1488 1488 1492
1586 1590 1600 1602 1601 1604 1604 1620 1615 1614 1614 1614 1613 1612 1612 1611 1609 1607 1604 1600 1597 1594 1590 1587 1582 1577 1570 1564 1560 1554 1549 1543 1538 1531 1526 1519 1514 1509 1502 1498 1494 1487 1482 1480 1477 1471 1481 1478 1484
1588 1601 1599 1601 1599 1602 1606 1617 1615 1614 1613 1614 1614 1613 1612 1612 1610 1608 1604 1601 1597 1594 1590 1586 1581 1577 1570 1565 1559 1554 1549 1543 1538 1531 1525 1518 1512 1508 1502 1497 1492 1486 1480 1476 1475 1481 1469 1468 1467
1594 1600 1603 1606 1608 1604 1611 1615 1613 1613 1612 1613 1613 1614 1613 1612 1610 1608 1604 1602 1598 1595 1591 1587 1581 1576 1570 1564 1558 1552 1547 1542 1537 1531 1524 1517 1511 1506 1502 1498 1492 1486 1478 1474 1474 1471 1467 1468 1464
1581 1593 1601 1605 1606 1608 1610 1614 1613 1611 1612 1614 1615 1614 1614 1613 1611 1608 1605 1602 1598 1595 1591 1586 1580 1575 1569 1562 1556 1550 1544 1540 1536 1530 1523 1517 1511 1505 1501 1497 1492 1487 1480 1474 1469 1466 1464 1464 1467
1584 1595 1603 1601 1600 1604 1613 1615 1612 1612 1614 1615 1616 1615 1614 1612 1610 1608 1604 1601 1598 1594 1590 1585 1580 1575 1569 1563 1557 1551 1545 1540 1535 1529 1523 1516 1509 1503 1500 1495 1492 1488 1482 1476 1470 1466 1466 1465 1466
1592 1596 1598 1599 1599 1603 1611 1617 1614 1613 1614 1616 1616 1615 1613 1611 1609 1608 1604 1601 1598 1594 1589 1585 1579 1574 1570 1564 1558 1551 1544 1539 1533 1527 1521 1514 1508 1504 1500 1495 1492 1489 1484 1478 1474 1470 1467 1461 1460
1595 1591 1592 1598 1606 1617 1606 1634 1615 1614 1617 1617 1615 1613 1612 1611 1608 1606 1603 1600 1597 1592 1588 1585 1580 1575 1570 1564 1557 1550 1544 1538 1534 1528 1521 1513 1507 1503 1500 1496 1492 1489 1485 1480 1474 1470 1466 1463 1460
1594 1590 1594 1598 1607 1614 1610 1630 1617 1613 1617 1613 1613 1612 1611 1609 1607 1605 1602 1599 1595 1592 1588 1584 1579 1574 1569 1563 1557 1550 1544 1540 1534 1528 1521 1513 1508 1504 1501 1497 1492 1489 1486 1482 1476 1471 1466 1462 1459
1589 1594 1601 1604 1611 1644 1615 1627 1629 1616 1610 1610 1612 1611 1609 1608 1605 1603 1601 1597 1594 1591 1587 1583 1578 1573 1568 1561 1555 1549 1544 1538 1533 1527 1520 1514 1508 1504 1501 1497 1493 1489 1485 1482 1477 1472 1467 1463 1459
1592 1606 1647 1641 1646 1647 1607 1616 1617 1606 1607 1607 1609 1609 1608 1606 1604 1601 1598 1595 1592 1589 1586 1582 1577 1572 1566 1560 1554 1549 1544 1538 1533 1528 1522 1516 1510 1505 1502 1497 1493 1489 1485 1481 1477 1472 1467 1462 1460
1595 1603 1637 1658 1646 1628 1606 1622 1612 1604 1606 1606 1608 1607 1605 1605 1602 1599 1597 1595 1592 1588 1584 1580 1575 1570 1565 1559 1554 1549 1543 1538 1533 1529 1523 1517 1512 1506 1502 1498 1494 1489 1485 1480 1475 1470 1464 1460 1457
1597 1614 1605 1622 1628 1643 1628 1611 1607 1606 1606 1605 1605 1605 1603 1602 1600 1598 1597 1594 1591 1587 1583 1579 1574 1569 1564 1559 1554 1550 1543 1538 1533 1528 1523 1517 1511 1505 1501 1497 1493 1488 1484 1479 1474 1468 1462 1458 1454
1595 1604 1622 1634 1659 1667 1635 1608 1614 1610 1607 1605 1603 1603 1601 1599 1598 1596 1595 1593 1590 1586 1583 1578 1573 1568 1563 1559 1554 1548 1543 1538 1533 1527 1521 1515 1508 1504 1500 1496 1492 1487 1482 1478 1474 1467 1462 1457 1454
1610 1622 1624 1634 1650 1665 1679 1633 1605 1604 1604 1602 1600 1599 1597 1596 1595 1594 1593 1591 1589 1585 1581 1577 1572 1567 1563 1558 1553 1548 1542 1537 1532 1526 1519 1513 1508 1503 1499 1495 1490 1486 1482 1478 1472 1467 1462 1457 1453
1599 1615 1625 1642 1654 1649 1660 1635 1600 1599 1599 1598 1598 1596 1594 1593 1593 1591 1592 1590 1587 1584 1580 1575 1570 1566 1563 1558 1553 1548 1542 1537 1530 1523 1517 1512 1508 1504 1499 1494 1490 1486 1482 1477 1471 1465 1461 1456 1453
Wind_Speed
18 19 15 4 6 8 8 6 3 12 5 28 31 31 25 14 8 5 7 21 28 33 33 31 30 26 16 15 14 11 9 9 7 4 6 7 6 6 5 5 5 5 7 9 10 10 10 8 7
25 20 7 4 5 5 3 6 15 12 22 20 25 20 17 16 20 12 17 23 28 32 32 30 26 23 20 14 12 14 9 8 7 7 7 7 9 9 8 7 6 7 8 9 10 10 11 10 7
17 17 10 5 5 3 4 6 1 24 16 8 8 19 13 15 18 8 17 23 28 31 31 30 26 23 22 21 15 13 13 8 8 9 9 11 9 11 10 9 9 9 9 10 10 11 11 10 8
14 5 12 8 12 9 5 6 7 4 21 19 17 14 25 20 21 17 20 25 28 30 29 31 26 22 20 19 15 13 11 10 9 8 11 11 13 12 13 12 11 11 11 11 11 11 12 12 9
7 12 7 6 13 5 8 16 25 17 11 13 12 13 24 22 21 21 25 29 30 28 30 33 30 26 23 21 20 17 12 13 10 13 12 14 15 15 14 14 14 13 12 13 13 12 12 14 11
6 9 5 7 12 7 10 18 28 26 18 16 22 14 20 21 22 22 24 28 30 30 31 34 34 33 26 22 19 20 18 16 14 11 18 14 16 17 18 18 16 15 15 15 15 14 14 15 14
9 5 6 13 16 11 3 18 25 23 24 23 14 13 14 22 20 20 23 27 30 32 33 34 35 34 33 31 27 26 23 18 15 16 14 21 16 17 19 20 19 17 18 17 17 17 17 16 16
11 8 5 4 10 8 13 30 19 24 17 18 11 7 10 19 17 19 22 27 32 35 35 35 36 33 31 31 30 28 24 23 19 16 17 17 22 16 18 19 23 23 21 20 19 19 19 19 18
14 5 4 6 4 6 15 28 26 27 32 34 29 24 17 14 16 21 26 30 34 37 38 38 41 39 32 29 30 30 28 23 24 23 18 21 16 17 15 19 20 24 25 24 21 22 22 20 19
8 5 6 12 17 14 23 23 13 13 21 24 25 19 16 18 20 24 27 29 34 37 38 39 40 39 36 33 29 30 30 28 27 27 26 22 21 21 18 18 16 20 28 27 24 24 23 23 22
7 7 21 21 27 35 28 23 16 19 13 21 20 17 16 18 21 23 24 25 30 33 37 39 40 40 35 35 33 31 30 31 32 31 30 28 25 23 23 20 20 15 25 30 28 26 27 28 26
24 23 22 23 29 28 20 20 20 25 22 18 16 13 13 17 20 20 21 24 28 33 36 38 40 40 35 36 33 30 29 30 33 33 32 32 32 29 22 23 20 17 19 27 31 29 28 31 28
26 24 27 30 29 30 29 22 20 24 19 15 13 12 13 16 18 18 20 25 27 32 35 38 42 42 38 37 34 31 29 28 29 33 34 34 34 34 30 21 18 23 17 27 28 30 32 34 32
17 31 29 28 26 26 28 19 15 17 16 15 13 13 14 15 15 18 22 25 27 28 30 35 39 43 41 38 38 33 25 24 23 29 34 35 36 34 32 24 16 19 18 20 20 32 27 33 33
27 20 19 23 17 23 28 11 7 13 13 14 14 13 14 14 16 18 19 21 24 25 27 33 39 43 42 39 39 34 21 21 27 32 35 37 37 36 29 28 23 18 18 19 17 26 22 28 32
10 6 5 6 15 2 11 3 4 12 14 14 15 15 13 14 17 18 21 20 20 20 26 30 36 43 42 42 39 36 22 22 26 35 35 35 35 34 30 29 29 24 18 18 13 26 20 10 32
1 4 9 5 7 7 5 4 4 14 16 14 12 10 11 12 15 18 19 19 18 22 26 33 39 40 41 44 42 39 29 26 29 34 36 35 33 31 27 29 30 30 23 17 15 14 17 16 11
7 6 4 6 3 11 9 6 8 12 10 10 8 8 11 14 16 17 17 19 21 25 29 34 36 38 39 43 44 43 35 30 31 35 39 34 28 24 24 27 29 30 28 20 17 15 9 22 10
13 9 9 5 7 7 8 7 7 12 10 8 7 10 11 13 14 16 17 20 23 27 29 31 33 35 38 44 45 45 40 34 34 38 41 39 34 20 20 23 26 29 30 26 22 20 13 3 16
15 14 5 2 6 8 6 6 5 10 7 8 10 10 11 13 14 16 18 21 24 26 27 28 31 34 37 40 40 41 37 32 34 38 42 44 36 23 24 24 25 26 30 29 26 22 18 13 9
4 6 4 7 2 5 7 2 3 2 12 11 10 11 12 13 14 15 18 21 22 24 24 26 28 29 34 36 38 41 38 34 37 43 45 38 28 24 24 28 26 25 25 31 29 21 20 19 17
5 3 8 7 4 4 3 3 5 4 5 6 10 11 11 11 13 16 20 18 21 22 20 22 23 28 31 33 36 38 33 31 37 42 35 32 25 24 26 28 26 24 24 27 29 26 19 18 17
4 3 6 4 4 4 3 4 4 9 4 2 9 9 9 11 14 17 15 16 20 20 17 18 22 26 27 32 35 32 29 31 37 34 35 37 29 26 24 26 26 25 25 26 28 28 25 17 16
6 4 7 5 3 3 4 5 4 5 5 3 8 6 8 13 16 13 11 15 19 16 15 17 22 25 28 32 32 29 30 33 34 32 34 36 36 30 26 26 27 26 26 26 26 28 24 18 14
4 6 3 4 3 5 4 3 7 5 6 9 9 4 9 12 13 10 13 20 21 11 13 18 21 26 30 32 28 30 32 31 27 30 31 32 35 31 27 26 25 25 25 25 25 29 25 19 15
2 5 5 6 3 3 3 4 5 6 16 14 6 6 8 7 8 10 14 23 9 11 15 20 24 28 31 30 26 28 32 27 26 26 25 28 34 29 25 24 23 23 23 25 26 29 24 20 15
2 3 4 5 4 4 3 4 5 6 7 7 5 6 6 5 9 12 16 13 8 13 18 22 25 29 29 27 24 30 27 26 25 26 23 29 35 25 22 23 23 25 25 24 29 31 23 21 17
5 1 3 3 2 3 5 4 5 5 3 0 3 7 6 7 12 15 15 3 8 15 19 24 27 28 27 28 28 27 25 26 29 28 29 34 28 21 21 22 23 25 26 23 32 30 24 21 18
3 3 5 5 3 5 1 6 5 7 7 4 4 9 10 11 14 21 2 3 10 16 22 26 26 25 26 29 29 24 26 29 32 31 33 28 22 21 21 23 24 25 25 24 34 29 25 21 20
4 6 5 4 5 1 4 6 4 6 5 4 8 12 10 13 18 3 3 4 13 19 24 25 23 23 24 28 27 28 29 31 35 33 29 21 23 21 22 23 24 26 25 25 36 31 26 22 22
Wind_Direction
348 349 352 76 67 67 47 36 305 26 79 67 71 80 82 81 55 87 335 342 340 338 343 349 354 355 345 351 342 330 348 348 327 277 273 269 251 250 249 253 240 218 210 208 209 208 218 218 217
347 357 15 54 70 71 54 343 40 30 130 94 64 64 61 66 35 54 12 356 343 339 345 350 350 350 352 342 354 335 326 341 321 286 256 262 264 253 248 248 247 232 217 218 217 213 218 223 213
358 5 43 58 52 68 109 350 102 45 58 77 95 44 40 345 45 56 12 354 346 348 354 354 351 349 348 344 345 330 317 306 311 289 269 250 247 253 246 246 249 244 234 221 219 213 217 217 200
356 65 68 76 87 23 78 30 35 132 64 84 105 59 52 62 61 40 10 0 352 1 6 6 358 354 347 345 336 318 314 305 271 282 268 262 244 236 244 238 246 250 245 235 223 217 212 205 200
28 67 61 78 73 87 57 67 63 67 75 80 81 89 62 64 48 27 14 4 15 17 18 17 12 4 354 349 344 339 308 294 283 250 264 260 250 241 234 237 238 247 248 243 234 223 211 203 206
65 91 94 84 92 95 62 72 66 65 70 94 83 85 54 54 40 33 13 14 17 24 25 23 19 15 9 1 351 345 340 309 298 271 256 266 248 244 235 226 229 241 245 241 236 226 218 210 206
97 71 99 114 106 68 93 62 61 72 66 61 91 84 54 50 43 31 18 17 19 20 24 24 23 19 17 18 10 2 4 346 319 296 273 263 270 244 235 232 225 224 245 241 237 232 224 209 211
91 93 107 80 101 72 73 74 79 66 51 60 62 60 55 49 37 30 20 18 18 17 18 19 17 17 15 16 18 13 9 358 339 312 285 270 267 268 236 226 230 225 222 242 236 234 228 219 210
83 63 97 146 108 117 106 91 76 85 85 79 83 82 66 44 35 29 22 18 16 15 14 12 13 12 12 12 11 15 14 2 350 344 319 297 294 284 262 233 226 235 229 225 233 236 232 225 215
71 85 51 87 104 106 95 84 96 93 87 83 80 70 54 40 34 33 24 19 14 11 11 8 9 10 10 11 8 7 10 9 0 351 343 335 313 301 270 255 242 232 235 232 222 232 234 231 223
46 102 107 102 107 97 92 87 88 93 80 91 89 72 52 39 38 36 30 24 17 11 8 6 5 8 8 10 7 5 3 3 1 359 354 350 334 320 282 276 252 247 232 233 231 226 231 230 225
93 96 108 102 101 98 92 107 96 95 106 90 84 70 47 34 35 35 29 21 13 7 5 4 3 5 6 7 7 6 4 0 357 352 352 353 354 351 325 301 262 283 249 229 232 231 229 233 227
101 111 111 115 104 99 96 95 104 99 99 90 87 74 60 44 40 33 22 11 5 3 1 1 1 2 2 4 4 1 5 6 357 349 346 347 350 353 350 328 294 276 259 240 232 227 229 233 229
140 123 123 114 106 96 84 68 102 107 94 96 93 86 66 56 42 21 12 9 3 2 2 1 3 359 359 2 2 2 9 7 357 354 344 342 345 348 351 351 324 289 281 256 270 227 229 222 226
128 113 111 125 122 122 94 43 57 105 96 94 89 88 68 52 30 23 17 13 9 4 0 2 359 355 357 357 1 4 5 358 356 346 339 338 344 345 349 358 349 324 290 283 278 239 246 216 222
120 101 125 150 154 122 84 91 84 92 98 88 82 73 55 37 27 21 18 15 12 4 2 0 359 354 356 356 358 2 356 352 349 345 340 337 340 342 347 354 358 345 318 310 296 244 272 204 217
322 112 116 54 30 124 109 177 123 103 92 93 84 63 48 44 36 28 24 17 12 359 359 358 354 358 360 359 356 359 355 352 349 344 348 342 334 338 351 349 356 356 344 328 299 276 267 281 155
158 127 62 130 309 88 104 154 123 124 116 113 90 71 68 52 41 26 21 8 2 356 354 351 351 354 357 357 356 355 355 352 351 351 354 352 345 341 355 352 349 358 356 344 338 293 292 247 230
106 109 115 116 168 106 147 149 168 153 142 123 93 86 70 49 37 18 12 3 358 352 348 349 349 353 353 355 355 353 353 350 352 353 352 354 349 340 349 345 350 353 359 354 342 334 311 255 240
113 120 127 73 151 104 168 176 201 176 159 133 107 80 63 44 27 17 10 5 358 350 346 347 349 351 350 352 351 351 350 350 350 351 347 346 346 353 357 351 357 355 355 1 355 349 327 297 311
71 128 177 140 150 70 114 359 203 204 124 116 100 86 60 42 26 13 3 355 354 344 342 342 346 347 348 350 348 349 350 351 350 348 343 342 349 357 358 357 354 357 356 359 1 354 344 317 304
75 357 116 126 93 159 168 252 236 151 129 120 100 75 55 33 15 2 353 358 351 342 334 339 344 346 349 348 348 351 355 354 351 348 354 353 356 359 358 353 353 357 356 357 358 359 346 337 313
163 101 126 123 127 90 334 75 277 136 165 133 96 74 49 25 3 352 0 357 350 337 333 341 342 346 348 351 350 354 357 352 350 354 2 8 1 356 357 355 353 356 358 356 355 357 357 340 327
144 82 37 42 75 29 237 123 268 200 178 140 107 73 27 358 350 353 1 348 343 343 338 339 344 348 351 353 355 359 354 351 353 0 3 6 8 358 357 358 356 355 355 356 352 353 354 351 330
80 70 13 5 8 219 221 101 237 176 152 132 127 57 6 3 15 8 339 341 345 352 344 344 348 353 356 354 359 358 353 353 360 1 359 1 1 0 355 352 353 354 353 352 349 351 351 355 342
118 143 146 186 202 256 290 237 264 152 119 117 93 12 356 10 2 336 345 347 7 354 349 348 354 357 357 357 2 357 2 6 4 358 351 354 353 353 351 348 353 351 351 350 348 351 352 354 346
226 68 152 105 10 49 255 315 18 124 93 83 41 358 347 342 323 333 348 358 8 355 353 356 357 359 358 2 360 356 359 2 354 355 354 348 347 351 349 349 352 353 354 352 353 352 355 357 353
103 65 62 358 118 269 292 266 222 202 187 52 14 316 315 314 322 340 345 31 358 355 359 356 357 357 359 2 357 1 359 355 355 354 351 347 354 0 355 354 355 355 359 354 352 354 358 358 1
31 42 59 108 113 158 216 264 223 181 194 195 268 289 296 304 323 331 356 18 355 359 357 355 354 1 360 1 359 1 353 354 353 348 347 357 4 4 0 359 360 359 2 352 354 359 359 1 360
111 158 135 119 255 155 141 276 238 197 194 227 278 296 296 304 324 139 127 1 2 360 355 356 357 1 358 -0 2 1 355 354 351 349 356 12 9 4 2 2 360 359 358 349 355 358 360 4 2